Location: �terpigny
(49.8910°N, 2.9249°E)
Time: 17:18:55
(UTC+00:00)

CENTAUR R/B - Pass Details

Date: 24 October 2021
Orbit: 728 x 1459 km, 63.4° (Epoch: 26 November)

Event Time Altitude Azimuth Distance (km) Brightness Sun altitude
Rises 19:49:25 0° 313° (NW) 4,006 6.6 -30.9°
Reaches altitude 10° 19:52:05 10° 318° (NW) 3,142 5.8 -31.3°
Maximum altitude 19:59:40 53° 35° (NE) 1,608 3.4 -32.5°
Enters shadow 19:59:44 53° 37° (NE) 1,610 3.4 -32.5°
